"Sample Date","Sample Time","Sample Value","Units","Flow Rate","Sample Interval","Number Channels","Micron Size 0","Counts/Channel 0","Micron Size 1","Counts/Channel 1","Micron Size 2","Counts/Channel 2","Micron Size 3","Counts/Channel 3","Micron Size 4","Counts/Channel 4","Micron Size 5","Counts/Channel 5","Micron Size 6","Counts/Channel 6","Micron Size 7","Counts/Channel 7","Micron Size 8","Counts/Channel 8","Micron Size 9","Counts/Channel 9","Micron Size 10","Counts/Channel 10","Micron Size 11","Counts/Channel 11","Micron Size 12","Counts/Channel 12","Micron Size 13","Counts/Channel 13","Micron Size 14","Counts/Channel 14","Micron Size 15","Counts/Channel 15","Micron Size 16","Counts/Channel 16","Micron Size 17","Counts/Channel 17","Micron Size 18","Counts/Channel 18","Micron Size 19","Counts/Channel 19","Micron Size 20","Counts/Channel 20","Micron Size 21","Counts/Channel 21","Micron Size 22","Counts/Channel 22","Micron Size 23","Counts/Channel 23","Micron Size 24","Counts/Channel 24","Micron Size 25","Counts/Channel 25","Micron Size 26","Counts/Channel 26","Micron Size 27","Counts/Channel 27","Micron Size 28","Counts/Channel 28","Micron Size 29","Counts/Channel 29","Micron Size 30","Counts/Channel 30","Micron Size 31","Counts/Channel 31"
"03/09/08","22:00:04",22705.000,"cc",28343.395,6.00,6,0.100,12962.000,0.200,6568.000,0.300,1822.000,0.500,1127.000,1.000,226.000,5.000,0
"03/09/08","22:00:10",22992.000,"cc",28336.328,6.00,6,0.100,13293.000,0.200,6626.000,0.300,1789.000,0.500,1064.000,1.000,220.000,5.000,0
"03/09/08","22:00:16",22445.000,"cc",28355.348,6.00,6,0.100,13071.000,0.200,6446.000,0.300,1672.000,0.500,1076.000,1.000,180.000,5.000,0
"03/09/08","22:00:22",22860.000,"cc",28309.195,6.00,6,0.100,13099.000,0.200,6563.000,0.300,1786.000,0.500,1175.000,1.000,237.000,5.000,0
"03/09/08","22:00:28",22750.000,"cc",28237.061,6.00,6,0.100,13018.000,0.200,6514.000,0.300,1829.000,0.500,1166.000,1.000,223.000,5.000,0
"03/09/08","22:00:34",22776.000,"cc",28350.633,6.00,6,0.100,12994.000,0.200,6590.000,0.300,1837.000,0.500,1133.000,1.000,222.000,5.000,0
"03/09/08","22:00:40",22764.000,"cc",28318.643,6.00,6,0.100,13046.000,0.200,6511.000,0.300,1839.000,0.500,1127.000,1.000,241.000,5.000,0
"03/09/08","22:00:46",22852.000,"cc",28312.602,6.00,6,0.100,13118.000,0.200,6521.000,0.300,1863.000,0.500,1137.000,1.000,213.000,5.000,0
"03/09/08","22:00:52",22929.000,"cc",28282.402,6.00,6,0.100,13033.000,0.200,6716.000,0.300,1818.000,0.500,1148.000,1.000,214.000,5.000,0
"03/09/08","22:00:58",24937.000,"cc",28316.190,6.00,6,0.100,14075.000,0.200,7064.000,0.300,2141.000,0.500,1397.000,1.000,260.000,5.000,0
"03/09/08","22:01:04",26734.000,"cc",28303.367,6.00,6,0.100,15183.000,0.200,7480.000,0.300,2413.000,0.500,1377.000,1.000,281.000,5.000,0
"03/09/08","22:01:10",29165.000,"cc",28258.174,6.00,6,0.100,16280.000,0.200,8052.000,0.300,2791.000,0.500,1680.000,1.000,362.000,5.000,0
"03/09/08","22:01:16",23124.000,"cc",28348.344,6.00,6,0.100,13287.000,0.200,6578.000,0.300,1805.000,0.500,1250.000,1.000,204.000,5.000,0
"03/09/08","22:01:22",23091.000,"cc",28377.545,6.00,6,0.100,13318.000,0.200,6643.000,0.300,1748.000,0.500,1149.000,1.000,233.000,5.000,0
"03/09/08","22:01:28",22721.000,"cc",28346.434,6.00,6,0.100,13114.000,0.200,6558.000,0.300,1728.000,0.500,1102.000,1.000,219.000,5.000,0
"03/09/08","22:01:34",22523.000,"cc",28349.166,6.00,6,0.100,12910.000,0.200,6526.000,0.300,1727.000,0.500,1133.000,1.000,227.000,5.000,0
"03/09/08","22:01:40",22674.000,"cc",28257.318,6.00,6,0.100,13052.000,0.200,6447.000,0.300,1751.000,0.500,1199.000,1.000,225.000,5.000,0
"03/09/08","22:01:46",22656.000,"cc",28317.467,6.00,6,0.100,12885.000,0.200,6515.000,0.300,1844.000,0.500,1179.000,1.000,233.000,5.000,0
"03/09/08","22:01:52",22820.000,"cc",28307.838,6.00,6,0.100,12962.000,0.200,6629.000,0.300,1761.000,0.500,1214.000,1.000,254.000,5.000,0
"03/09/08","22:01:58",23240.000,"cc",28327.387,6.00,6,0.100,13566.000,0.200,6635.000,0.300,1750.000,0.500,1084.000,1.000,205.000,5.000,0
"03/09/08","22:02:04",23014.000,"cc",28305.801,6.00,6,0.100,13199.000,0.200,6576.000,0.300,1823.000,0.500,1161.000,1.000,255.000,5.000,0
"03/09/08","22:02:10",23052.000,"cc",28325.893,6.00,6,0.100,13233.000,0.200,6659.000,0.300,1806.000,0.500,1132.000,1.000,222.000,5.000,0
"03/09/08","22:02:16",22817.000,"cc",28284.498,6.00,6,0.100,13041.000,0.200,6546.000,0.300,1816.000,0.500,1162.000,1.000,252.000,5.000,0
"03/09/08","22:02:22",22726.000,"cc",28387.857,6.00,6,0.100,12956.000,0.200,6579.000,0.300,1774.000,0.500,1181.000,1.000,236.000,5.000,0
"03/09/08","22:02:28",22658.000,"cc",28266.178,6.00,6,0.100,12850.000,0.200,6627.000,0.300,1812.000,0.500,1137.000,1.000,232.000,5.000,0
"03/09/08","22:02:34",23104.000,"cc",28313.940,6.00,6,0.100,13352.000,0.200,6630.000,0.300,1715.000,0.500,1140.000,1.000,267.000,5.000,0
"03/09/08","22:02:40",26090.000,"cc",28289.805,6.00,6,0.100,14509.000,0.200,7406.000,0.300,2385.000,0.500,1488.000,1.000,302.000,5.000,0
"03/09/08","22:02:46",23484.000,"cc",28324.801,6.00,6,0.100,13418.000,0.200,6746.000,0.300,1954.000,0.500,1150.000,1.000,216.000,5.000,0
"03/09/08","22:02:52",22994.000,"cc",28352.695,6.00,6,0.100,13034.000,0.200,6724.000,0.300,1826.000,0.500,1173.000,1.000,237.000,5.000,0
"03/09/08","22:02:58",22821.000,"cc",28349.527,6.00,6,0.100,13089.000,0.200,6551.000,0.300,1750.000,0.500,1183.000,1.000,248.000,5.000,0
"03/09/08","22:03:04",22804.000,"cc",28367.943,6.00,6,0.100,13046.000,0.200,6520.000,0.300,1784.000,0.500,1201.000,1.000,253.000,5.000,0
"03/09/08","22:03:10",22936.000,"cc",28307.504,6.00,6,0.100,13253.000,0.200,6462.000,0.300,1817.000,0.500,1189.000,1.000,215.000,5.000,0
"03/09/08","22:03:16",22769.000,"cc",28296.111,6.00,6,0.100,13099.000,0.200,6581.000,0.300,1708.000,0.500,1124.000,1.000,257.000,5.000,0
"03/09/08","22:03:22",22918.000,"cc",28290.260,6.00,6,0.100,13127.000,0.200,6661.000,0.300,1717.000,0.500,1176.000,1.000,237.000,5.000,0
"03/09/08","22:03:28",22582.000,"cc",28308.760,6.00,6,0.100,12931.000,0.200,6493.000,0.300,1764.000,0.500,1165.000,1.000,229.000,5.000,0
"03/09/08","22:03:34",23383.000,"cc",28313.012,6.00,6,0.100,13364.000,0.200,6694.000,0.300,1849.000,0.500,1232.000,1.000,244.000,5.000,0
"03/09/08","22:03:40",22849.000,"cc",28301.902,6.00,6,0.100,13119.000,0.200,6508.000,0.300,1774.000,0.500,1194.000,1.000,254.000,5.000,0
"03/09/08","22:03:46",23189.000,"cc",28331.541,6.00,6,0.100,13403.000,0.200,6517.000,0.300,1841.000,0.500,1158.000,1.000,270.000,5.000,0
"03/09/08","22:03:52",23020.000,"cc",28393.023,6.00,6,0.100,13098.000,0.200,6742.000,0.300,1706.000,0.500,1229.000,1.000,245.000,5.000,0
"03/09/08","22:03:58",22860.000,"cc",28274.969,6.00,6,0.100,13142.000,0.200,6463.000,0.300,1805.000,0.500,1192.000,1.000,258.000,5.000,0
"03/09/08","22:04:04",23492.000,"cc",28298.731,6.00,6,0.100,13343.000,0.200,6837.000,0.300,1747.000,0.500,1275.000,1.000,290.000,5.000,0
"03/09/08","22:04:10",23245.000,"cc",28179.291,6.00,6,0.100,13210.000,0.200,6671.000,0.300,1857.000,0.500,1225.000,1.000,282.000,5.000,0
"03/09/08","22:04:16",22927.000,"cc",28400.240,6.00,6,0.100,13050.000,0.200,6672.000,0.300,1777.000,0.500,1164.000,1.000,264.000,5.000,0
"03/09/08","22:04:22",23020.000,"cc",28365.127,6.00,6,0.100,13180.000,0.200,6527.000,0.300,1830.000,0.500,1217.000,1.000,266.000,5.000,0
"03/09/08","22:04:28",23403.000,"cc",28302.918,6.00,6,0.100,13257.000,0.200,6724.000,0.300,1790.000,0.500,1327.000,1.000,305.000,5.000,0
"03/09/08","22:04:34",23700.000,"cc",28272.947,6.00,6,0.100,13516.000,0.200,6842.000,0.300,1840.000,0.500,1231.000,1.000,271.000,5.000,0
"03/09/08","22:04:40",23104.000,"cc",28277.850,6.00,6,0.100,13176.000,0.200,6584.000,0.300,1798.000,0.500,1268.000,1.000,278.000,5.000,0
"03/09/08","22:04:46",23423.000,"cc",28390.357,6.00,6,0.100,13390.000,0.200,6666.000,0.300,1772.000,0.500,1291.000,1.000,304.000,5.000,0
"03/09/08","22:04:52",23264.000,"cc",28322.623,6.00,6,0.100,13303.000,0.200,6691.000,0.300,1761.000,0.500,1240.000,1.000,269.000,5.000,0
"03/09/08","22:04:58",23507.000,"cc",28278.334,6.00,6,0.100,13418.000,0.200,6680.000,0.300,1851.000,0.500,1286.000,1.000,272.000,5.000,0
"03/09/08","22:05:04",23504.000,"cc",28275.565,6.00,6,0.100,13379.000,0.200,6740.000,0.300,1791.000,0.500,1307.000,1.000,287.000,5.000,0
"03/09/08","22:05:10",23722.000,"cc",28371.725,6.00,6,0.100,13618.000,0.200,6735.000,0.300,1833.000,0.500,1260.000,1.000,276.000,5.000,0
"03/09/08","22:05:16",23555.000,"cc",28347.565,6.00,6,0.100,13222.000,0.200,6920.000,0.300,1829.000,0.500,1287.000,1.000,297.000,5.000,0
"03/09/08","22:05:22",23761.000,"cc",28314.014,6.00,6,0.100,13471.000,0.200,6788.000,0.300,1939.000,0.500,1265.000,1.000,298.000,5.000,0
"03/09/08","22:05:28",23652.000,"cc",28263.154,6.00,6,0.100,13406.000,0.200,6869.000,0.300,1839.000,0.500,1221.000,1.000,317.000,5.000,0
"03/09/08","22:05:34",23540.000,"cc",28266.201,6.00,6,0.100,13407.000,0.200,6729.000,0.300,1818.000,0.500,1287.000,1.000,299.000,5.000,0
"03/09/08","22:05:40",23540.000,"cc",28368.471,6.00,6,0.100,13345.000,0.200,6818.000,0.300,1900.000,0.500,1182.000,1.000,295.000,5.000,0
"03/09/08","22:05:46",23270.000,"cc",28357.986,6.00,6,0.100,13243.000,0.200,6671.000,0.300,1838.000,0.500,1269.000,1.000,249.000,5.000,0
"03/09/08","22:05:52",23594.000,"cc",28262.406,6.00,6,0.100,13371.000,0.200,6725.000,0.300,1898.000,0.500,1289.000,1.000,311.000,5.000,0
"03/09/08","22:05:58",23600.000,"cc",28399.811,6.00,6,0.100,13524.000,0.200,6604.000,0.300,1887.000,0.500,1316.000,1.000,269.000,5.000,0
"03/09/08","22:06:04",23626.000,"cc",28258.027,6.00,6,0.100,13422.000,0.200,6743.000,0.300,1839.000,0.500,1317.000,1.000,305.000,5.000,0
"03/09/08","22:06:10",23750.000,"cc",28226.822,6.00,6,0.100,13562.000,0.200,6749.000,0.300,1866.000,0.500,1260.000,1.000,313.000,5.000,0
"03/09/08","22:06:16",23646.000,"cc",28314.479,6.00,6,0.100,13390.000,0.200,6760.000,0.300,1823.000,0.500,1387.000,1.000,286.000,5.000,0
"03/09/08","22:06:22",23539.000,"cc",28381.820,6.00,6,0.100,13409.000,0.200,6623.000,0.300,1888.000,0.500,1324.000,1.000,295.000,5.000,0
"03/09/08","22:06:28",23475.000,"cc",28293.729,6.00,6,0.100,13418.000,0.200,6725.000,0.300,1806.000,0.500,1239.000,1.000,287.000,5.000,0
"03/09/08","22:06:34",23325.000,"cc",28313.842,6.00,6,0.100,13087.000,0.200,6689.000,0.300,1804.000,0.500,1409.000,1.000,336.000,5.000,0
"03/09/08","22:06:40",23598.000,"cc",28340.545,6.00,6,0.100,13254.000,0.200,6820.000,0.300,1853.000,0.500,1348.000,1.000,323.000,5.000,0
"03/09/08","22:06:46",23741.000,"cc",28335.465,6.00,6,0.100,13452.000,0.200,6715.000,0.300,1850.000,0.500,1411.000,1.000,313.000,5.000,0
"03/09/08","22:06:52",23743.000,"cc",28312.264,6.00,6,0.100,13428.000,0.200,6777.000,0.300,1851.000,0.500,1331.000,1.000,356.000,5.000,0
"03/09/08","22:06:58",24252.000,"cc",28362.643,6.00,6,0.100,13860.000,0.200,6887.000,0.300,1830.000,0.500,1329.000,1.000,346.000,5.000,0
"03/09/08","22:07:04",23992.000,"cc",28304.236,6.00,6,0.100,13399.000,0.200,7005.000,0.300,1857.000,0.500,1407.000,1.000,324.000,5.000,0
"03/09/08","22:07:10",24078.000,"cc",28336.410,6.00,6,0.100,13787.000,0.200,6774.000,0.300,1860.000,0.500,1320.000,1.000,337.000,5.000,0
"03/09/08","22:07:16",23925.000,"cc",28320.078,6.00,6,0.100,13360.000,0.200,6953.000,0.300,1869.000,0.500,1339.000,1.000,404.000,5.000,0
"03/09/08","22:07:22",23867.000,"cc",28329.684,6.00,6,0.100,13486.000,0.200,6931.000,0.300,1881.000,0.500,1272.000,1.000,297.000,5.000,0
"03/09/08","22:07:28",24328.000,"cc",28284.320,6.00,6,0.100,13726.000,0.200,6842.000,0.300,1970.000,0.500,1435.000,1.000,355.000,5.000,0
"03/09/08","22:07:34",24402.000,"cc",28362.016,6.00,6,0.100,13758.000,0.200,6906.000,0.300,1943.000,0.500,1423.000,1.000,372.000,5.000,0
"03/09/08","22:07:40",24992.000,"cc",28237.654,6.00,6,0.100,14095.000,0.200,7036.000,0.300,1962.000,0.500,1492.000,1.000,407.000,5.000,0
"03/09/08","22:07:46",24008.000,"cc",28316.680,6.00,6,0.100,13470.000,0.200,6909.000,0.300,1957.000,0.500,1339.000,1.000,333.000,5.000,0
"03/09/08","22:07:52",23958.000,"cc",28309.168,6.00,6,0.100,13559.000,0.200,6850.000,0.300,1871.000,0.500,1383.000,1.000,295.000,5.000,0
"03/09/08","22:07:58",23711.000,"cc",28304.897,6.00,6,0.100,13449.000,0.200,6739.000,0.300,1882.000,0.500,1287.000,1.000,354.000,5.000,0
"03/09/08","22:08:04",24042.000,"cc",28365.445,6.00,6,0.100,13698.000,0.200,6766.000,0.300,1882.000,0.500,1360.000,1.000,336.000,5.000,0
"03/09/08","22:08:10",24047.000,"cc",28322.047,6.00,6,0.100,13661.000,0.200,6841.000,0.300,1801.000,0.500,1419.000,1.000,324.000,5.000,1.000
"03/09/08","22:08:16",24094.000,"cc",28239.305,6.00,6,0.100,13680.000,0.200,6835.000,0.300,1851.000,0.500,1396.000,1.000,332.000,5.000,0
"03/09/08","22:08:22",24256.000,"cc",28240.594,6.00,6,0.100,13771.000,0.200,7004.000,0.300,1845.000,0.500,1310.000,1.000,326.000,5.000,0
"03/09/08","22:08:28",24583.000,"cc",28347.910,6.00,6,0.100,13873.000,0.200,6910.000,0.300,1952.000,0.500,1502.000,1.000,346.000,5.000,0
"03/09/08","22:08:34",24135.000,"cc",28315.762,6.00,6,0.100,13748.000,0.200,6897.000,0.300,1915.000,0.500,1249.000,1.000,326.000,5.000,0
"03/09/08","22:08:40",24107.000,"cc",28280.018,6.00,6,0.100,13643.000,0.200,6820.000,0.300,1901.000,0.500,1374.000,1.000,369.000,5.000,0
"03/09/08","22:08:46",24082.000,"cc",28322.361,6.00,6,0.100,13613.000,0.200,6901.000,0.300,1879.000,0.500,1345.000,1.000,344.000,5.000,0
"03/09/08","22:08:52",25118.000,"cc",28323.053,6.00,6,0.100,14237.000,0.200,7011.000,0.300,1934.000,0.500,1528.000,1.000,408.000,5.000,0
"03/09/08","22:08:58",24193.000,"cc",28368.965,6.00,6,0.100,13598.000,0.200,6943.000,0.300,1905.000,0.500,1368.000,1.000,379.000,5.000,0
"03/09/08","22:09:04",24363.000,"cc",28329.932,6.00,6,0.100,13813.000,0.200,6867.000,0.300,1922.000,0.500,1437.000,1.000,324.000,5.000,0
"03/09/08","22:09:10",24045.000,"cc",28317.881,6.00,6,0.100,13569.000,0.200,6877.000,0.300,1931.000,0.500,1353.000,1.000,315.000,5.000,0
"03/09/08","22:09:16",24377.000,"cc",28294.412,6.00,6,0.100,13653.000,0.200,7006.000,0.300,1910.000,0.500,1406.000,1.000,402.000,5.000,0
"03/09/08","22:09:22",24369.000,"cc",28367.588,6.00,6,0.100,13675.000,0.200,6922.000,0.300,1886.000,0.500,1506.000,1.000,380.000,5.000,0
"03/09/08","22:09:28",25100.000,"cc",28279.941,6.00,6,0.100,14260.000,0.200,6889.000,0.300,1998.000,0.500,1519.000,1.000,434.000,5.000,0
"03/09/08","22:09:34",24046.000,"cc",28353.932,6.00,6,0.100,13651.000,0.200,6745.000,0.300,1981.000,0.500,1326.000,1.000,343.000,5.000,0
"03/09/08","22:09:40",24337.000,"cc",28261.258,6.00,6,0.100,13621.000,0.200,6974.000,0.300,1955.000,0.500,1403.000,1.000,384.000,5.000,0
"03/09/08","22:09:46",23922.000,"cc",28337.994,6.00,6,0.100,13574.000,0.200,6711.000,0.300,1859.000,0.500,1421.000,1.000,357.000,5.000,0
"03/09/08","22:09:52",24360.000,"cc",28342.035,6.00,6,0.100,13580.000,0.200,7002.000,0.300,1986.000,0.500,1433.000,1.000,359.000,5.000,0
"03/09/08","22:09:58",24330.000,"cc",28237.301,6.00,6,0.100,13568.000,0.200,6835.000,0.300,1999.000,0.500,1572.000,1.000,356.000,5.000,0
"03/09/08","22:10:04",24357.000,"cc",28174.940,6.00,6,0.100,13615.000,0.200,6947.000,0.300,1935.000,0.500,1471.000,1.000,389.000,5.000,0
"03/09/08","22:10:10",24428.000,"cc",28261.082,6.00,6,0.100,13721.000,0.200,6935.000,0.300,2028.000,0.500,1385.000,1.000,359.000,5.000,0
"03/09/08","22:10:16",24302.000,"cc",28387.088,6.00,6,0.100,13607.000,0.200,6962.000,0.300,1952.000,0.500,1389.000,1.000,392.000,5.000,0
"03/09/08","22:10:22",24724.000,"cc",28342.740,6.00,6,0.100,14006.000,0.200,6896.000,0.300,1990.000,0.500,1416.000,1.000,416.000,5.000,0
"03/09/08","22:10:28",24221.000,"cc",28352.285,6.00,6,0.100,13680.000,0.200,6789.000,0.300,1939.000,0.500,1447.000,1.000,366.000,5.000,0
"03/09/08","22:10:34",25113.000,"cc",28286.504,6.00,6,0.100,14122.000,0.200,7060.000,0.300,2104.000,0.500,1453.000,1.000,374.000,5.000,0
"03/09/08","22:10:40",24310.000,"cc",28365.541,6.00,6,0.100,13778.000,0.200,6824.000,0.300,1907.000,0.500,1427.000,1.000,374.000,5.000,0
"03/09/08","22:10:46",25432.000,"cc",28216.373,6.00,6,0.100,14123.000,0.200,7147.000,0.300,2127.000,0.500,1632.000,1.000,403.000,5.000,0
"03/09/08","22:10:52",24515.000,"cc",28206.660,6.00,6,0.100,13794.000,0.200,6895.000,0.300,1959.000,0.500,1490.000,1.000,377.000,5.000,0
"03/09/08","22:10:58",24636.000,"cc",28424.238,6.00,6,0.100,13658.000,0.200,6986.000,0.300,2038.000,0.500,1550.000,1.000,404.000,5.000,0
"03/09/08","22:11:04",24795.000,"cc",28361.127,6.00,6,0.100,13848.000,0.200,7112.000,0.300,1996.000,0.500,1457.000,1.000,382.000,5.000,0
"03/09/08","22:11:10",24693.000,"cc",28372.066,6.00,6,0.100,13879.000,0.200,7033.000,0.300,1938.000,0.500,1488.000,1.000,355.000,5.000,0
"03/09/08","22:11:16",24394.000,"cc",28293.438,6.00,6,0.100,13634.000,0.200,7011.000,0.300,2019.000,0.500,1374.000,1.000,356.000,5.000,0
"03/09/08","22:11:22",24871.000,"cc",28244.877,6.00,6,0.100,13936.000,0.200,7010.000,0.300,2005.000,0.500,1513.000,1.000,407.000,5.000,0
"03/09/08","22:11:28",25060.000,"cc",28329.947,6.00,6,0.100,13933.000,0.200,7126.000,0.300,2073.000,0.500,1540.000,1.000,388.000,5.000,0
"03/09/08","22:11:34",24875.000,"cc",28471.246,6.00,6,0.100,14181.000,0.200,6975.000,0.300,1970.000,0.500,1402.000,1.000,347.000,5.000,0
"03/09/08","22:11:40",24826.000,"cc",28238.356,6.00,6,0.100,13959.000,0.200,7026.000,0.300,1971.000,0.500,1472.000,1.000,398.000,5.000,0
"03/09/08","22:11:46",24310.000,"cc",28333.602,6.00,6,0.100,13771.000,0.200,6842.000,0.300,2000.000,0.500,1356.000,1.000,341.000,5.000,0
"03/09/08","22:11:52",24557.000,"cc",28376.293,6.00,6,0.100,13833.000,0.200,6922.000,0.300,1951.000,0.500,1500.000,1.000,351.000,5.000,0
"03/09/08","22:11:58",25169.000,"cc",28321.178,6.00,6,0.100,14167.000,0.200,7054.000,0.300,2010.000,0.500,1547.000,1.000,391.000,5.000,0
"03/09/08","22:12:04",24572.000,"cc",28295.566,6.00,6,0.100,13868.000,0.200,6927.000,0.300,1863.000,0.500,1522.000,1.000,392.000,5.000,0
"03/09/08","22:12:10",25329.000,"cc",28331.150,6.00,6,0.100,14220.000,0.200,7101.000,0.300,2081.000,0.500,1490.000,1.000,437.000,5.000,0
"03/09/08","22:12:16",24473.000,"cc",28327.588,6.00,6,0.100,13658.000,0.200,7014.000,0.300,1931.000,0.500,1504.000,1.000,366.000,5.000,0
"03/09/08","22:12:22",24574.000,"cc",28335.766,6.00,6,0.100,13651.000,0.200,7141.000,0.300,1949.000,0.500,1463.000,1.000,370.000,5.000,0
"03/09/08","22:12:28",24532.000,"cc",28322.828,6.00,6,0.100,13737.000,0.200,6952.000,0.300,1930.000,0.500,1476.000,1.000,437.000,5.000,0
"03/09/08","22:12:34",25156.000,"cc",28267.080,6.00,6,0.100,14056.000,0.200,7149.000,0.300,1961.000,0.500,1547.000,1.000,443.000,5.000,0
"03/09/08","22:12:40",25405.000,"cc",28299.217,6.00,6,0.100,14148.000,0.200,7164.000,0.300,2029.000,0.500,1625.000,1.000,439.000,5.000,0
"03/09/08","22:12:46",24645.000,"cc",28274.404,6.00,6,0.100,13632.000,0.200,6977.000,0.300,2037.000,0.500,1557.000,1.000,442.000,5.000,0
"03/09/08","22:12:52",25243.000,"cc",28352.725,6.00,6,0.100,14161.000,0.200,7061.000,0.300,2064.000,0.500,1541.000,1.000,416.000,5.000,0
"03/09/08","22:12:58",25136.000,"cc",28344.606,6.00,6,0.100,14118.000,0.200,7129.000,0.300,2032.000,0.500,1469.000,1.000,388.000,5.000,0
"03/09/08","22:13:04",25129.000,"cc",28334.178,6.00,6,0.100,13939.000,0.200,7080.000,0.300,2076.000,0.500,1613.000,1.000,421.000,5.000,0
"03/09/08","22:13:10",24921.000,"cc",28276.522,6.00,6,0.100,13906.000,0.200,7050.000,0.300,2040.000,0.500,1531.000,1.000,394.000,5.000,0
"03/09/08","22:13:16",24928.000,"cc",28334.197,6.00,6,0.100,13894.000,0.200,7033.000,0.300,2031.000,0.500,1550.000,1.000,420.000,5.000,0
"03/09/08","22:13:22",24812.000,"cc",28339.023,6.00,6,0.100,13927.000,0.200,6978.000,0.300,1957.000,0.500,1538.000,1.000,412.000,5.000,0
"03/09/08","22:13:28",26231.000,"cc",28348.793,6.00,6,0.100,14421.000,0.200,7417.000,0.300,2186.000,0.500,1727.000,1.000,480.000,5.000,0
"03/09/08","22:13:34",24849.000,"cc",28392.748,6.00,6,0.100,13875.000,0.200,7141.000,0.300,1865.000,0.500,1553.000,1.000,415.000,5.000,0
"03/09/08","22:13:40",26462.000,"cc",28242.025,6.00,6,0.100,14664.000,0.200,7442.000,0.300,2182.000,0.500,1744.000,1.000,430.000,5.000,0
"03/09/08","22:13:46",25837.000,"cc",28243.131,6.00,6,0.100,14204.000,0.200,7198.000,0.300,2229.000,0.500,1720.000,1.000,486.000,5.000,0
"03/09/08","22:13:52",24976.000,"cc",28367.895,6.00,6,0.100,13904.000,0.200,7002.000,0.300,2051.000,0.500,1612.000,1.000,407.000,5.000,0
"03/09/08","22:13:58",25019.000,"cc",28371.449,6.00,6,0.100,14047.000,0.200,7022.000,0.300,1980.000,0.500,1560.000,1.000,410.000,5.000,0
"03/09/08","22:14:04",24971.000,"cc",28284.342,6.00,6,0.100,13838.000,0.200,7147.000,0.300,1967.000,0.500,1585.000,1.000,434.000,5.000,0
"03/09/08","22:14:10",24803.000,"cc",28299.041,6.00,6,0.100,13948.000,0.200,6969.000,0.300,1898.000,0.500,1566.000,1.000,422.000,5.000,0
"03/09/08","22:14:16",24455.000,"cc",28351.240,6.00,6,0.100,13642.000,0.200,6961.000,0.300,1933.000,0.500,1548.000,1.000,371.000,5.000,0
"03/09/08","22:14:22",25152.000,"cc",28293.002,6.00,6,0.100,13844.000,0.200,7114.000,0.300,2073.000,0.500,1677.000,1.000,444.000,5.000,0
"03/09/08","22:14:28",24891.000,"cc",28261.443,6.00,6,0.100,13790.000,0.200,7030.000,0.300,2064.000,0.500,1565.000,1.000,442.000,5.000,0
"03/09/08","22:14:34",24883.000,"cc",28331.617,6.00,6,0.100,13795.000,0.200,7015.000,0.300,2056.000,0.500,1600.000,1.000,417.000,5.000,0
"03/09/08","22:14:40",24677.000,"cc",28374.822,6.00,6,0.100,13717.000,0.200,7047.000,0.300,2048.000,0.500,1489.000,1.000,376.000,5.000,0
"03/09/08","22:14:46",24784.000,"cc",28294.775,6.00,6,0.100,13872.000,0.200,6984.000,0.300,2024.000,0.500,1508.000,1.000,396.000,5.000,0
"03/09/08","22:14:52",25321.000,"cc",28328.813,6.00,6,0.100,13944.000,0.200,7260.000,0.300,2100.000,0.500,1595.000,1.000,422.000,5.000,0
"03/09/08","22:14:58",24843.000,"cc",28310.537,6.00,6,0.100,13853.000,0.200,6951.000,0.300,2033.000,0.500,1600.000,1.000,406.000,5.000,0
"03/09/08","22:15:04",24982.000,"cc",28379.918,6.00,6,0.100,13906.000,0.200,7106.000,0.300,1992.000,0.500,1530.000,1.000,448.000,5.000,0
"03/09/08","22:15:10",25184.000,"cc",28296.375,6.00,6,0.100,14039.000,0.200,7142.000,0.300,1999.000,0.500,1584.000,1.000,420.000,5.000,0
"03/09/08","22:15:16",24987.000,"cc",28328.301,6.00,6,0.100,14007.000,0.200,6970.000,0.300,1990.000,0.500,1600.000,1.000,420.000,5.000,0
"03/09/08","22:15:22",25378.000,"cc",28236.539,6.00,6,0.100,14025.000,0.200,7134.000,0.300,2119.000,0.500,1644.000,1.000,456.000,5.000,0
"03/09/08","22:15:28",24957.000,"cc",28314.525,6.00,6,0.100,13849.000,0.200,7098.000,0.300,1973.000,0.500,1620.000,1.000,417.000,5.000,0
"03/09/08","22:15:34",25198.000,"cc",28300.947,6.00,6,0.100,13881.000,0.200,7181.000,0.300,2104.000,0.500,1593.000,1.000,439.000,5.000,0
"03/09/08","22:15:40",25160.000,"cc",28274.154,6.00,6,0.100,13880.000,0.200,7221.000,0.300,1977.000,0.500,1648.000,1.000,434.000,5.000,0
"03/09/08","22:15:46",25145.000,"cc",28331.566,6.00,6,0.100,13965.000,0.200,7115.000,0.300,2003.000,0.500,1617.000,1.000,445.000,5.000,0
"03/09/08","22:15:52",25259.000,"cc",28264.686,6.00,6,0.100,13916.000,0.200,7175.000,0.300,2120.000,0.500,1613.000,1.000,435.000,5.000,0
"03/09/08","22:15:58",25136.000,"cc",28347.857,6.00,6,0.100,13978.000,0.200,7064.000,0.300,2065.000,0.500,1619.000,1.000,410.000,5.000,0
"03/09/08","22:16:04",25803.000,"cc",28317.283,6.00,6,0.100,14390.000,0.200,7290.000,0.300,2062.000,0.500,1657.000,1.000,404.000,5.000,0
"03/09/08","22:16:10",25242.000,"cc",28266.244,6.00,6,0.100,13807.000,0.200,7251.000,0.300,2109.000,0.500,1626.000,1.000,449.000,5.000,0
"03/09/08","22:16:16",26201.000,"cc",28318.240,6.00,6,0.100,14732.000,0.200,7145.000,0.300,2217.000,0.500,1677.000,1.000,430.000,5.000,0
"03/09/08","22:16:22",25000.000,"cc",28471.742,6.00,6,0.100,14099.000,0.200,6950.000,0.300,1985.000,0.500,1552.000,1.000,414.000,5.000,0